Location: Ellerstadt
(49.4644°N, 8.2615°E)
Time: 03:58:45
(UTC+00:00)

SL-4 R/B - Visible Passes

Search period start: 14 June 2021 00:00
Search period end: 24 June 2021 00:00
Orbit: 427 x 663 km, 51.6° (Epoch: 13 June)

Date Brightness Start Highest point End Pass type
(mag) Time Alt. Az. Time Alt. Az. Time Alt. Az.
14 Jun 2.3 00:27:43 34° S 00:28:25 38° SSE 00:31:47 10° E visible
14 Jun 1.8 02:04:09 10° W 02:07:50 72° NNW 02:11:19 10° ENE visible
15 Jun 2.0 00:20:26 37° SSW 00:21:23 47° SSE 00:24:52 10° ENE visible
15 Jun 2.0 01:57:14 10° W 02:00:54 66° N 02:04:22 10° ENE visible
16 Jun 1.8 00:13:04 35° SW 00:14:23 58° SSE 00:17:57 10° ENE visible
16 Jun 2.1 01:50:17 10° W 01:53:58 62° N 01:57:26 10° ENE visible
16 Jun 3.9 22:30:03 14° ESE 22:30:03 14° ESE 22:30:57 10° E visible
17 Jun 1.6 00:05:32 28° SW 00:07:24 70° SSE 00:11:00 10° ENE visible
17 Jun 2.2 01:43:21 10° W 01:47:02 60° N 01:50:30 10° ENE visible
17 Jun 3.3 22:22:18 20° ESE 22:22:18 20° ESE 22:24:15 10° E visible
17 Jun 1.6 23:57:46 19° WSW 00:00:25 82° SSE 00:04:03 10° ENE visible
18 Jun 2.2 01:36:25 10° W 01:40:06 59° N 01:43:35 10° E visible
18 Jun 2.7 22:14:04 29° SE 22:14:07 29° SE 22:17:27 10° E visible
18 Jun 1.7 23:49:32 10° WSW 23:53:27 87° NNW 23:57:06 10° ENE visible
19 Jun 2.2 01:29:29 10° WNW 01:33:10 60° N 01:36:39 10° E visible
19 Jun 2.4 22:04:15 16° SSW 22:07:04 36° SSE 22:10:35 10° E visible
19 Jun 1.9 23:42:33 10° WSW 23:46:29 78° NNW 23:50:08 10° ENE visible
20 Jun 2.2 01:22:32 10° WNW 01:26:15 62° N 01:29:44 10° E visible
20 Jun 3.9 20:20:04 10° SSE 20:21:07 11° SE 20:22:08 10° ESE visible
20 Jun 2.1 21:56:06 10° SW 22:00:02 44° SSE 22:03:41 10° ENE visible
20 Jun 2.0 23:35:36 10° W 23:39:32 71° NNW 23:43:11 10° ENE visible
21 Jun 2.1 01:15:34 10° WNW 01:19:18 66° N 01:22:48 10° E visible
21 Jun 1.9 21:48:58 10° SW 21:53:00 54° SSE 21:56:45 10° ENE visible
21 Jun 2.2 23:28:39 10° W 23:32:35 66° N 23:36:15 10° ENE visible
22 Jun 1.9 01:08:35 10° WNW 01:12:21 72° NNE 01:15:53 10° E visible
22 Jun 1.8 21:41:52 10° WSW 21:46:00 65° SSE 21:49:48 10° ENE visible
22 Jun 2.3 23:21:42 10° W 23:25:39 63° N 23:29:17 10° ENE visible
23 Jun 1.7 01:01:37 10° WNW 01:05:24 80° NNE 01:08:56 10° ESE visible
23 Jun 1.8 21:34:49 10° WSW 21:39:00 77° SSE 21:42:51 10° ENE visible
23 Jun 2.3 23:14:45 10° W 23:18:42 61° N 23:22:21 10° E visible
